Regional Weather Roundup
Issued by NWS

Home | Current Version | Previous Version | Text Only | Print | Product List | Glossary Off
Versions: 1 2 3 4 5 6 7 8 9 10 11 12 13 14 15 16 17 18 19 20 21 22 23 24 25 26 27 28 29 30 31 32 33 34 35 36 37 38 39 40 41 42 43 44 45 46 47 48 49 50

000
ASUS43 KLOT 221209
RWRIL

ILLINOIS REGIONAL WEATHER ROUNDUP
NATIONAL WEATHER SERVICE CHICAGO/ROMEOVILLE IL
700 AM CDT MON MAY 22 2017

NOTE: "FAIR" INDICATES FEW OR NO CLOUDS BELOW 12,000 FEET WITH NO
SIGNIFICANT WEATHER AND/OR OBSTRUCTIONS TO VISIBILITY.

* THESE STATIONS ARE NOT UNDER NWS QUALITY CONTROL. THEY ALSO MAY NOT
  REPORT WEATHER SUCH AS PRECIPITATION OR FOG.

ILZ001-002-007-009-015-016-024-221300-
NORTHWEST ILLINOIS

CITY           SKY/WX    TMP DP  RH WIND       PRES   REMARKS
MOLINE         SUNNY     51  44  77 SW5       30.03S
6HR MIN TEMP:  45; 6HR MAX TEMP:  51;

STERLING*      SUNNY     49  44  83 VRB5      30.04R
SAVANNA*       MOSUNNY   49  44  80 S7        30.02R
$$

ILZ003-004-008-010-011-017-018-221300-
NORTH CENTRAL ILLINOIS

CITY           SKY/WX    TMP DP  RH WIND       PRES   REMARKS
ROCKFORD       SUNNY     48  43  82 SW9       30.04R
6HR MIN TEMP:  45; 6HR MAX TEMP:  51;

FREEPORT*      SUNNY     46  42  86 SW8       30.02R
ROCHELLE*      SUNNY     47  44  90 SW8       30.04R
DE KALB*       MOSUNNY   49  43  81 SW10      30.04R
PERU*          SUNNY     49  44  80 SW9       30.07R
$$

ILZ005-006-012>014-019>023-221300-
NORTHEAST ILLINOIS

CITY           SKY/WX    TMP DP  RH WIND       PRES   REMARKS
CHICAGO-OHARE  MOSUNNY   50  43  77 W10       30.03R
6HR MIN TEMP:  48; 6HR MAX TEMP:  52;

CHICAGO-MIDWAY MOSUNNY   51  44  77 SW10      30.04R
6HR MIN TEMP:  49; 6HR MAX TEMP:  52;

AURORA         SUNNY     49  44  83 SW9       30.05R
6HR MIN TEMP:  46; 6HR MAX TEMP:  51;

LANSING*       SUNNY     50  45  84 SW9       30.06S
WAUKEGAN       SUNNY     49  43  80 VRB7      29.99R
6HR MIN TEMP:  46; 6HR MAX TEMP:  50;

DUPAGE AIRPORT SUNNY     48  45  89 SW10      30.03R
6HR MIN TEMP:  45; 6HR MAX TEMP:  50;

KANKAKEE*      SUNNY     51  45  80 CALM      30.09R
WHEELING       SUNNY     49  44  83 SW7       30.03S
6HR MIN TEMP:  47; 6HR MAX TEMP:  51;

MORRIS*        SUNNY     50  45  81 CALM      30.06R
ROMEOVILLE*    SUNNY     50  46  86 SW10      30.06R
NORTHERLY ISL    N/A     51  42  71 SW6         N/A
$$

LMZ740>746-221300-
SOUTHERN LAKE MICHIGAN

STATION/POSITION SKY/WX   TEMP    WIND        PRES    VSBY  WAVE
                          AIR SEA DIR/SP/G                  HT/PER
                          (F)     (DEG/KT/KT) (MB)    (MI)  (FT/S)
SOUTHERN BUOY              47 44  260/ 12/ 14 1015.2          2/ 4
WILMETTE HARBOR            50 52                N/A           1/ 2
HARRISON CRIB              52     230/ 11/ 14   N/A
BURNHAM HARBOR             52     200/  5/ 10   N/A
CALUMET HARBOR             51     210/  8/ 11 1017.0R
BURNS HARBOR               51     230/ 10/ 17 1017.9
MICHIGAN CITY              51     220/ 15/ 18   N/A
MICHIGAN CITY 6N           51 52  230/ 12/ 17   N/A           3/ 4
ST. JOSEPH                 52 54  260/ 16/ 17 1017.8          4/ 4
$$

ILZ025>027-034>036-040-047-049-050-058-095>099-221300-
WEST-CENTRAL ILLINOIS

CITY           SKY/WX    TMP DP  RH WIND       PRES   REMARKS
QUINCY         SUNNY     51  48  89 S8        30.08S
GALESBURG*     SUNNY     49  45  88 S8        30.05S
MACOMB*        SUNNY     51  47  85 S8        30.09R
JACKSONVILLE*  SUNNY     52  48  87 S5        30.09S
PITTSFIELD*    SUNNY     54  49  81 SW5       30.10F
$$

ILZ028>032-037-038-041>044-048-051>054-059>061-221300-
CENTRAL ILLINOIS

CITY           SKY/WX    TMP DP  RH WIND       PRES   REMARKS
PONTIAC        SUNNY     52  48  87 SW8       30.09R
BLOOMINGTON    SUNNY     51  46  83 SW7       30.10S
DECATUR        MOSUNNY   51  48  89 SW5       30.11S
PEORIA         SUNNY     50  49  96 S5        30.09R
6HR MIN TEMP:  46; 6HR MAX TEMP:  50;

LACON*         SUNNY     51  46  81 SW7       30.07S
LINCOLN*       SUNNY     53  48  85 CALM      30.10S
SPRINGFIELD    SUNNY     53  50  89 S3        30.11R
6HR MIN TEMP:  49; 6HR MAX TEMP:  53;

TAYLORVILLE    CLOUDY    50  50  99 S3        30.12S
6HR MIN TEMP:  47; 6HR MAX TEMP:  51;

$$

ILZ033-039-045-046-055>057-062-063-221300-
EAST-CENTRAL ILLINOIS

CITY           SKY/WX    TMP DP  RH WIND       PRES   REMARKS
CHAMPAIGN      SUNNY     51  47  86 SW7       30.11R
RANTOUL*       SUNNY     53  49  86 W6        30.11R
MATTOON        CLOUDY    52  50  93 S7        30.12R
PARIS*         CLOUDY    53  48  85 SW6       30.12S
$$

ILZ079-100>102-221300-
SOUTHWEST ILLINOIS

CITY           SKY/WX    TMP DP  RH WIND       PRES   REMARKS
ALTON          PTSUNNY   50  48  93 S6        30.13R
BELLEVILLE     PTSUNNY   52  50  93 CALM      30.16R
CAHOKIA*       CLOUDY    53  50  89 CALM      30.14R
SPARTA*        PTSUNNY   54  49  85 S3        30.18R
$$

ILZ064>066-069>071-074>076-080>082-084>086-088>090-092>094-221300-
SOUTH-CENTRAL ILLINOIS

CITY           SKY/WX    TMP DP  RH WIND       PRES   REMARKS
CARBONDALE     MOSUNNY   54  54 100 CALM      30.18R
6HR MIN TEMP:  51; 6HR MAX TEMP:  56;

CAIRO*         CLOUDY    57  54  91 NE3       30.16S
EFFINGHAM*     CLOUDY    51  51 100 CALM      30.16R
MARION         PTSUNNY   57  55  94 S6        30.18R
MT. VERNON       N/A     51  50  96 CALM      30.17R
CENTRALIA*     PTSUNNY   53  53  97 CALM      30.15R
SALEM*         CLOUDY    55  51  87 S3        30.15R
METROPOLIS*    CLOUDY    55  53  92 CALM      30.18R
$$

ILZ067-068-072-073-078-083-087-091-221300-
SOUTHEAST ILLINOIS

CITY           SKY/WX    TMP DP  RH WIND       PRES   REMARKS
LAWRENCEVILLE  PTSUNNY   53  51  93 SE3       30.15R
FLORA*         PTSUNNY   54  51  88 W3        30.15R
FAIRFIELD*     CLOUDY    53  53  99 CALM      30.16R
HARRISBURG*    MOSUNNY   54  53  96 CALM      30.18R
ROBINSON*      PTSUNNY   50  50  99 CALM      30.14S
CARMI*         MOSUNNY   56  53  90 S8        30.17R
$$

ABBREVIATIONS USED IN REMARKS
   TC - TEMPERATURE IN CELSIUS
  WCI - WIND CHILL INDEX
   HX - HEAT INDEX
  VSB - VISIBILITY
$$





USA.gov is the U.S. government's official web portal to all federal, state and local government web resources and services.